Location: Ar Ranvel
(48.3000°N, 4.8833°W)
Time: 19:23:48
(UTC+00:00)

ISS - Pass Details

Date: 30 September 2021
Orbit: 417 x 423 km, 51.6° (Epoch: 20 October)

Event Time Altitude Azimuth Distance (km) Brightness Sun altitude
Rises 20:38:52 0° 290° (WNW) 2,367 1.4 -26.4°
Reaches altitude 10° 20:41:06 10° 279° (W) 1,501 -0.1 -26.7°
Enters shadow 20:42:28 20° 264° (W) 1,042 -1.2 -26.9°
